GSAT0215 (PRN E21)

Last updated on Feb. 28, 2020, 4:49 a.m. UTC

1 43055U 17079A   20057.67383420  .00000011  00000-0  00000-0 0  9990
2 43055  56.3561 284.8628 0001335 336.2438  23.8096  1.70473895 13730
UTC
Height (km)
Latitude
Longitude
Inclination
Orbital Period
UTC large
Height (km)
Speed (km/s)
/
Latitude / Longitude
Inclination (degrees)
Orbital Period (minutes)
Azimuth
Elevation
Range (km)
Doppler Factor
iOS Compass Heading
iOS Angle

Next 30 passes for location: Hong Kong

Rise time Rise Azimuth (degrees) Set time Set Azimuth (degrees) Duration Max altitude (degrees)

No matching passes for this satellites